{"data":{"norad_id":65846,"intl_designator":"2025-221Z","name":"STARLINK-35290","alt_names":[],"object_type":"PAYLOAD","status":"ACTIVE","operator":null,"country":"US","launch_date":"2025-09-29","launch_site_code":"AFWTR","launch_vehicle":null,"mission":null,"orbit_class":"UNKNOWN","rcs_meters":null,"size_class":null,"mass_kg":null,"dimensions":null,"purposes":["comms"],"wikipedia_slug":null,"has_3d_model":false,"image_url":null,"decayed_at":null,"tle_current":{"epoch":"2026-05-25T04:00:03.998880Z","epoch_age_seconds":70898,"freshness":"FRESH","line1":"1 65846U 25221Z   26145.16671295  .00017755  00000+0  54988-3 0  9997","line2":"2 65846  53.1589  92.9232 0001107  89.3808 320.4961 15.33549806  5761","mean_motion":15.33549806,"eccentricity":0.0001107,"inclination_deg":53.1589,"raan_deg":92.9232,"arg_perigee_deg":89.3808,"mean_anomaly_deg":320.4961,"bstar":0.00054988,"rev_number":576,"period_min":93.899786910475,"perigee_km":464.47380244094,"apogee_km":465.98892419658,"semimajor_km":6843.3683633188,"source":"CELESTRAK","updated_at":"2026-05-25T13:38:20.946915Z"}}}